"Pseudo-MPEC" for C003UM3

Created 2019 Dec 8 1:07:03 UT using Find_Orb

Click here for an explanation of pseudo-MPECs

 
 Astrometry: 
     C003UM3  C2019 12 02.22552 04 57 39.49 +23 07 24.4    ~C2Hq 22.5 GVNEOCPI52
     C003UM3  C2019 12 02.23480 04 57 39.60 +23 08 09.3    ~C2Hq       VNEOCPI52

Station data:
(I52) Steward Observatory, Mt. Lemmon Station  (N32.442547 W110.788920)
   US/Arizona.  Observers T. A. Pruyne, B. M. Africano, E. J. Christensen, G.
   A. Farneth, D. C. Fuls, A. R. Gibbs, A. D. Grauer, H. Gröller, J. A.
   Johnson, R. A. Kowalski, S. M. Larson, G. J. Leonard, D. Rankin, R. L.
   Seaman, F. C. Shelly. 1.0-m reflector + CCD.

Orbital elements:  C003UM3
   Perihelion 2019 Dec 1.640082 +/- 40.5 TT = 15:21:43 (JD 2458819.140082)
Epoch 2019 Dec  2.0 TT = JDT 2458819.5   Earth MOID: 0.2437   AutoNEOCP
M   0.08041378 +/- 19               (J2000 ecliptic)
n   0.22342253 +/- 0.247            Peri.  359.78051 +/- 57
a   2.68978806 +/- 1.98             Node    70.39998 +/- 25
e   0.5428518 +/- 0.253             Incl.   16.96241 +/- 7
P   4.41                   H 25.0   G  0.15   U 11.8  SR
q 1.22963174 +/- 0.234    Q 4.14994438 +/- 40.3
From 2 observations 2019 Dec. 2 (13.4 min); mean residual 0".05
Residuals in arcseconds: 
191202 I52  .07+  .01+    191202 I52  .07+  .01+    

Ephemerides (geocentric):
Date (UTC) HH   RA              Dec         delta   r     elong  mag " sig PA
---- -- -- --  -------------   -----------  ------ ------ -----  --- ---- ---
2019 12 08 01  04 59 52.624   +30 45 46.90  .24873 1.2318 171.8 22.9  50d   1
2019 12 08 02  04 59 53.594   +30 48 58.17  .24879 1.2318 171.8 22.9  50d   1
2019 12 08 03  04 59 54.565   +30 52 09.33  .24885 1.2319 171.7 22.9  50d   2
2019 12 08 04  04 59 55.536   +30 55 20.37  .24890 1.2319 171.7 22.9  50d   2
2019 12 08 05  04 59 56.507   +30 58 31.28  .24896 1.2319 171.7 23.0  51d   2
2019 12 08 06  04 59 57.479   +31 01 42.08  .24902 1.2319 171.6 23.0  51d   2
2019 12 08 07  04 59 58.452   +31 04 52.76  .24908 1.2320 171.6 23.0  51d   3
2019 12 08 08  04 59 59.425   +31 08 03.31  .24914 1.2320 171.5 23.0  51d   3
2019 12 08 09  05 00 00.399   +31 11 13.75  .24920 1.2320 171.5 23.0  51d   3
2019 12 08 10  05 00 01.373   +31 14 24.06  .24926 1.2321 171.4 23.0  51d   3
2019 12 08 11  05 00 02.348   +31 17 34.24  .24932 1.2321 171.4 23.0  51d   3
2019 12 08 12  05 00 03.324   +31 20 44.30  .24938 1.2321 171.3 23.0  51d   3
2019 12 08 13  05 00 04.300   +31 23 54.24  .24944 1.2322 171.3 23.0  51d   4
2019 12 08 14  05 00 05.277   +31 27 04.05  .24950 1.2322 171.2 23.0  51d   4
2019 12 08 15  05 00 06.255   +31 30 13.74  .24956 1.2322 171.2 23.0  51d   4
2019 12 08 16  05 00 07.233   +31 33 23.30  .24962 1.2322 171.1 23.0  51d   4
2019 12 08 17  05 00 08.212   +31 36 32.73  .24969 1.2323 171.1 23.0  51d   4
2019 12 08 18  05 00 09.191   +31 39 42.03  .24975 1.2323 171.0 23.0  51d   4
2019 12 08 19  05 00 10.171   +31 42 51.21  .24981 1.2323 171.0 23.0  51d   4
2019 12 08 20  05 00 11.152   +31 46 00.25  .24988 1.2324 171.0 23.0  51d   4
2019 12 08 21  05 00 12.134   +31 49 09.16  .24994 1.2324 170.9 23.0  51d   4
2019 12 08 22  05 00 13.116   +31 52 17.95  .25001 1.2324 170.9 23.0  51d   4
2019 12 08 23  05 00 14.099   +31 55 26.60  .25007 1.2325 170.8 23.0  51d   4
2019 12 09 00  05 00 15.083   +31 58 35.11  .25014 1.2325 170.8 23.0  51d   4
2019 12 09 01  05 00 16.067   +32 01 43.50  .25020 1.2325 170.7 23.0  51d   4
2019 12 09 02  05 00 17.052   +32 04 51.75  .25027 1.2326 170.7 23.0  51d   4
2019 12 09 03  05 00 18.038   +32 07 59.87  .25034 1.2326 170.6 23.0  52d   4
2019 12 09 04  05 00 19.025   +32 11 07.85  .25040 1.2326 170.6 23.0  52d   3
2019 12 09 05  05 00 20.012   +32 14 15.69  .25047 1.2327 170.5 23.0  52d   3
2019 12 09 06  05 00 21.001   +32 17 23.40  .25054 1.2327 170.5 23.0  52d   3
2019 12 09 07  05 00 21.990   +32 20 30.98  .25061 1.2327 170.4 23.0  53d   3
2019 12 09 08  05 00 22.980   +32 23 38.41  .25067 1.2328 170.4 23.0  53d   3
2019 12 09 09  05 00 23.970   +32 26 45.71  .25074 1.2328 170.3 23.0  53d   2
2019 12 09 10  05 00 24.962   +32 29 52.86  .25081 1.2328 170.3 23.0  53d   2
2019 12 09 11  05 00 25.954   +32 32 59.88  .25088 1.2329 170.2 23.0  54d   2
2019 12 09 12  05 00 26.947   +32 36 06.76  .25095 1.2329 170.2 23.0  54d   2
2019 12 09 13  05 00 27.941   +32 39 13.49  .25102 1.2329 170.1 23.0  54d   2
2019 12 09 14  05 00 28.936   +32 42 20.09  .25109 1.2330 170.1 23.0  54d   2
2019 12 09 15  05 00 29.931   +32 45 26.54  .25117 1.2330 170.0 23.0  54d   2
2019 12 09 16  05 00 30.928   +32 48 32.85  .25124 1.2330 170.0 23.0  55d   2
2019 12 09 17  05 00 31.925   +32 51 39.01  .25131 1.2331 169.9 23.0  55d   2
2019 12 09 18  05 00 32.924   +32 54 45.03  .25138 1.2331 169.9 23.0  55d   2
2019 12 09 19  05 00 33.923   +32 57 50.91  .25145 1.2332 169.8 23.0  55d   3
2019 12 09 20  05 00 34.923   +33 00 56.64  .25153 1.2332 169.8 23.0  55d   3
2019 12 09 21  05 00 35.924   +33 04 02.23  .25160 1.2332 169.7 23.0  55d   3
2019 12 09 22  05 00 36.926   +33 07 07.66  .25168 1.2333 169.7 23.0  55d   3
2019 12 09 23  05 00 37.929   +33 10 12.95  .25175 1.2333 169.6 23.1  55d   3
2019 12 10 00  05 00 38.932   +33 13 18.10  .25182 1.2333 169.6 23.1  56d   3